SCP
0 1 1 1 1 0 0 1 1 0 0 0 1 1 2 2 1 1 1 0 0 0 0 0 0 0 0 1 2 2 2 1 1 2 2 2 2 2
0 1 1 1 1 0 0 0 1 0 0 0 1 1 1 1 1 1 1 0 0 0 0 0 0 0 0 1 1 2 1 1 1 2 2 2 2 2
0 0 1 1 1 0 0 0 0 0 0 0 0 1 1 1 1 1 1 1 0 0 0 0 0 0 0 0 1 1 1 1 1 1 2 2 2 1
0 0 0 0 0 0 0 0 0 0 0 0 0 1 1 1 1 1 1 1 0 0 0 0 0 0 0 0 0 0 0 0 1 1 1 1 1 1
0 0 0 0 0 0 0 0 0 0 0 0 0 0 1 1 1 1 1 1 0 0 0 0 0 0 0 0 0 0 0 0 0 0 0 0 1 1
0 0 0 0 0 0 0 0 0 0 0 0 0 0 0 1 1 1 1 0 0 0 0 0 0 0 0 0 0 0 0 0 0 0 0 0 0 0
0 0 0 0 0 0 0 0 0 0 0 0 0 0 0 0 1 1 1 0 0 0 0 0 0 0 0 0 0 0 0 0 0 0 0 0 0 0
0 0 0 0 0 0 0 0 0 0 0 0 0 0 0 0 1 1 1 1 0 0 0 0 0 0 0 0 0 0 0 0 0 0 0 0 0 0
0 0 0 0 0 0 0 0 0 0 0 0 0 0 0 0 0 1 1 1 1 0 0 0 0 0 0 0 0 0 0 0 0 0 0 0 0 0
0 0 0 0 0 0 0 0 0 0 0 0 0 0 0 0 0 1 1 1 1 1 1 0 0 0 0 0 0 0 0 0 0 0 0 0 0 0
0 0 0 0 0 0 0 0 0 0 0 0 0 0 0 0 0 1 1 1 0 0 0 0 0 0 0 0 0 0 0 0 0 0 0 0 0 0
0 0 0 0 0 0 0 0 0 0 0 0 0 0 0 0 0 0 1 1 0 0 0 0 0 0 0 0 0 0 0 0 0 0 0 0 0 0
0 0 0 0 0 0 0 0 0 0 0 0 0 0 0 0 0 0 1 1 0 0 0 0 0 0 0 0 0 0 0 0 0 0 0 0 0 0
0 0 0 0 0 0 0 0 0 0 0 0 0 0 0 0 0 1 1 1 0 0 0 0 0 0 0 0 0 0 0 0 0 0 0 0 0 0
0 0 0 0 0 0 0 0 0 0 0 0 0 0 0 0 0 0 0 0 0 0 0 0 0 0 0 0 0 0 0 0 0 0 0 0 0 0
0 0 0 0 0 0 0 0 0 0 0 0 0 0 0 0 0 0 0 0 0 0 0 0 0 0 0 0 0 0 0 0 0 0 0 0 0 0
0 0 0 0 0 0 0 0 0 0 0 0 0 0 0 0 0 0 0 0 0 0 0 0 0 0 0 0 0 0 0 0 0 0 0 0 0 0
0 0 0 0 0 0 0 0 0 0 0 0 0 0 0 0 0 0 0 0 0 0 0 0 0 0 0 0 0 0 0 0 0 0 0 0 0 0
0 0 0 0 0 0 0 0 0 0 0 0 0 0 0 0 0 0 0 0 0 0 0 0 0 0 0 0 0 0 0 0 0 0 0 0 0 0
0 0 0 0 0 0 0 0 0 0 0 0 0 0 0 0 0 0 0 0 0 0 0 0 0 0 0 0 0 0 0 0 0 0 0 0 0 0
0 0 0 0 0 0 0 0 0 0 0 0 0 0 0 0 0 0 0 0 0 0 0 0 0 0 0 0 0 0 0 0 0 0 0 0 0 0
0 0 0 0 0 0 0 0 0 0 0 0 0 0 0 0 0 0 0 0 0 0 0 0 0 0 0 0 0 0 0 0 0 0 0 0 0 0
0 0 0 0 0 0 0 0 0 0 0 0 0 0 0 0 0 0 0 0 0 0 0 0 0 0 0 0 0 0 0 0 0 0 0 0 0 0
Wind_Speed
4 4 3 3 3 3 3 3 3 3 3 3 2 2 2 3 3 3 3 4 6 6 6 7 7 7 7 7 7 7 8 9 10 10 11 12 12 13
4 4 3 3 3 3 3 3 3 3 3 3 3 2 3 3 3 3 4 5 5 6 6 7 7 7 7 8 7 7 8 8 9 10 11 12 13 13
4 4 4 3 3 3 2 3 3 3 4 3 2 2 3 3 3 3 3 3 3 5 6 6 6 6 7 8 8 8 8 8 9 9 9 10 11 12
4 4 5 4 4 3 3 3 3 4 4 3 2 2 3 3 3 3 3 3 3 5 6 6 6 6 7 7 8 8 8 8 9 9 9 10 11 11
5 5 5 5 5 4 4 4 3 3 3 3 3 2 2 2 2 2 3 2 3 4 5 6 7 7 7 7 8 8 8 8 9 9 9 10 10 11
5 5 6 6 6 5 4 4 3 3 3 3 3 2 2 2 2 2 2 2 3 3 3 4 5 6 6 7 8 8 8 8 8 9 9 9 10 10
4 5 6 7 8 6 5 5 4 4 3 3 3 2 2 2 2 2 3 3 3 3 2 2 2 2 3 5 7 7 7 7 8 8 8 8 9 10
4 4 4 5 6 7 8 7 7 6 5 4 3 4 4 4 3 3 2 2 3 2 2 3 2 3 3 3 4 6 6 6 7 7 7 7 8 8
4 3 3 4 5 4 5 6 6 7 8 6 6 6 5 5 4 3 3 3 4 2 1 3 2 3 3 3 4 5 5 5 5 5 5 6 6 7
4 4 4 4 3 4 3 3 3 4 6 5 6 6 5 5 5 4 4 3 3 2 2 3 2 3 3 3 3 4 4 4 4 4 4 5 5 6
2 2 3 3 3 3 3 3 3 3 3 5 6 6 6 6 5 3 2 2 2 2 1 2 2 2 2 2 2 3 4 4 4 4 4 4 4 4
2 2 3 3 3 3 3 3 4 4 2 2 2 3 3 4 5 5 4 3 2 2 2 2 2 1 2 1 1 2 2 3 4 3 3 3 2 2
2 2 2 3 3 3 4 4 5 4 2 2 2 2 1 1 2 3 4 4 3 3 2 2 1 1 2 2 2 2 2 2 2 2 2 2 2 2
3 3 2 2 3 3 3 4 4 3 2 1 1 2 2 2 2 2 3 3 3 3 3 2 2 2 2 2 2 2 2 2 1 1 1 1 1 3
3 3 3 3 2 2 3 3 2 2 2 1 2 2 2 2 1 1 1 1 1 1 2 2 2 2 2 2 2 2 2 2 1 1 1 1 1 1
2 2 2 2 1 2 1 1 1 2 2 2 2 2 1 1 1 1 1 1 1 1 2 1 1 1 1 2 1 2 2 1 1 1 1 1 1 1
0 0 0 0 0 0 0 0 1 1 1 1 1 1 1 1 1 1 1 1 1 1 1 1 2 1 1 1 1 1 1 1 1 1 1 1 2 1
1 0 1 0 1 1 1 1 1 1 1 1 1 1 1 1 1 0 1 1 1 1 1 1 1 1 1 1 1 1 1 1 2 2 1 1 2 2
1 1 1 1 1 1 1 1 2 1 1 1 1 1 1 1 0 0 0 0 0 0 1 1 1 1 1 2 1 1 1 1 1 2 2 1 2 2
1 1 1 1 1 1 1 2 2 1 1 1 1 1 1 1 1 1 0 0 1 1 0 0 1 1 1 1 2 2 2 1 1 2 2 2 1 2
1 1 1 1 1 1 1 1 1 1 1 1 1 1 1 1 1 1 1 1 1 1 1 1 1 1 0 0 0 2 2 2 1 1 2 2 2 2
1 1 1 1 1 1 1 1 1 1 1 1 1 1 1 1 1 2 1 1 1 1 1 1 1 0 0 0 1 2 2 3 3 2 2 2 2 2
2 2 1 2 2 2 2 1 1 1 1 1 1 1 1 1 1 1 2 2 1 1 0 0 1 1 1 0 0 1 2 2 2 3 3 5 3 3
Wind_Direction
209 207 208 209 205 203 202 194 191 236 263 251 246 246 252 253 253 250 251 264 269 268 264 260 259 260 259 258 259 262 264 260 256 254 250 245 242 242
207 204 208 208 204 199 201 208 203 206 244 244 235 249 265 263 262 257 258 267 265 264 264 261 255 253 253 254 257 259 262 264 260 255 251 248 243 242
211 205 215 209 205 203 200 203 203 197 227 252 237 244 243 256 276 269 259 255 258 257 259 257 251 249 251 252 254 257 257 259 260 254 250 249 246 243
217 209 216 207 209 207 201 206 208 203 208 237 247 249 246 253 261 272 278 268 262 259 253 249 249 247 247 248 251 255 255 254 254 251 250 250 247 245
221 215 217 204 210 211 207 210 212 210 206 216 243 247 256 261 270 277 278 278 276 266 252 250 252 253 251 249 250 250 252 251 251 247 246 247 245 244
230 222 218 210 210 208 209 212 208 210 208 215 237 251 254 265 254 267 289 294 290 286 272 264 258 256 253 252 250 247 247 250 248 246 242 242 242 241
238 229 224 218 215 210 209 206 201 206 210 217 233 244 250 250 250 248 261 285 278 264 273 277 268 266 259 252 249 247 246 252 253 249 246 241 238 236
241 238 231 225 224 219 218 211 200 201 209 214 224 231 241 241 239 239 241 261 274 247 257 279 261 265 267 260 252 247 246 254 260 255 249 244 236 231
238 243 244 232 217 216 225 226 222 222 215 209 216 228 230 228 223 240 244 248 257 256 244 274 270 270 270 267 259 254 254 257 264 266 256 245 235 229
234 228 232 243 228 208 207 220 235 238 232 224 224 232 233 229 220 228 240 253 266 263 226 258 274 276 284 277 262 254 258 261 263 272 270 257 245 236
260 241 228 236 244 213 197 215 243 267 259 240 236 239 236 230 217 201 211 223 269 278 230 234 269 288 283 271 269 259 255 254 266 276 275 270 252 243
274 262 239 234 239 212 204 210 231 251 262 278 271 254 240 233 219 210 207 211 241 264 220 218 252 288 283 255 273 298 281 263 257 263 263 265 248 243
252 258 250 228 230 228 214 219 229 234 238 244 257 272 276 253 234 217 208 203 218 244 233 213 235 254 258 284 293 289 290 296 294 286 263 246 234 232
246 254 255 247 244 244 229 227 230 220 211 213 243 268 274 264 253 234 218 215 222 238 246 230 227 242 250 276 290 298 292 297 296 301 304 291 257 249
244 248 253 260 257 247 233 226 209 188 185 211 243 260 257 253 250 221 189 184 203 259 265 245 234 248 239 249 271 289 298 301 294 282 284 277 277 276
255 265 273 278 244 233 236 205 187 188 191 215 245 262 257 222 225 204 186 176 157 328 344 340 266 227 243 257 254 279 299 291 295 296 298 303 297 269
249 350 44 74 109 145 175 205 191 187 206 229 233 242 251 241 241 219 194 183 189 227 301 355 5 7 322 278 262 284 314 324 316 316 313 314 310 293
139 190 269 252 242 258 259 280 265 237 230 224 210 220 245 252 258 262 194 185 200 241 277 318 333 356 4 11 322 265 320 329 331 330 314 301 316 320
149 248 255 259 263 268 260 254 261 262 236 224 224 220 220 224 207 205 145 156 199 244 302 320 312 307 326 333 357 353 294 318 332 339 333 315 305 317
198 245 256 257 250 250 257 262 269 273 239 222 209 204 198 192 184 184 180 201 223 220 260 316 305 281 270 293 303 329 324 280 299 317 326 325 315 310
251 248 252 256 258 251 257 267 272 269 250 221 209 201 199 200 215 212 207 203 222 216 245 290 301 287 247 118 333 336 351 353 314 293 305 315 317 323
258 253 248 245 251 257 261 264 268 256 234 211 228 225 220 221 214 196 200 211 229 246 271 297 349 42 105 170 326 333 343 358 17 26 3 315 299 302
246 245 246 247 244 246 238 227 233 246 232 224 234 235 219 223 223 197 199 207 215 215 234 315 16 37 42 39 345 338 347 354 360 13 15 6 346 314